Theta_e
323 322 322 320 319 320 320 319 317 317 318 319 318 318 318 318 318 318 318 318 317 316 316 316 317 316 317 317 318 317 317 318 318 317 317 317 319 320 320 320 319 319 319 319 319 318 318 317 317 316 315 314 314 314 315 316 318 318 318 317 316 316 316 315 315 315 315 314 313
324 323 321 318 317 319 320 320 319 318 319 320 319 320 320 319 319 319 319 318 318 317 317 317 316 317 317 318 318 318 318 318 319 319 318 319 320 321 321 321 320 319 319 319 319 318 318 318 317 316 315 315 314 314 315 316 318 318 317 317 316 316 315 315 315 315 315 314 314
324 323 323 322 322 321 321 321 320 320 321 321 321 320 320 320 321 320 320 319 319 318 318 317 317 317 318 319 319 319 320 319 320 320 320 321 321 321 321 321 321 320 319 319 319 318 318 318 317 315 314 315 315 314 315 317 317 317 317 317 316 315 315 314 314 314 314 314 313
324 324 324 323 323 322 322 321 322 322 321 321 321 321 321 322 322 322 321 321 320 320 319 318 318 319 319 319 320 321 321 319 320 321 321 322 322 322 322 322 322 321 320 320 319 319 318 318 317 316 316 316 315 315 315 316 317 317 317 317 316 315 314 313 313 313 313 313 313
325 325 324 323 323 324 323 323 323 322 322 322 322 321 322 322 322 322 322 321 320 320 321 321 321 321 320 321 322 323 323 322 319 320 323 323 323 323 323 323 322 322 321 320 320 319 319 319 318 317 317 317 316 316 316 317 317 317 316 316 315 315 314 313 313 313 313 312 313
325 325 325 325 324 324 324 324 324 323 323 323 322 322 322 322 323 323 322 322 322 323 322 321 321 321 321 324 324 325 325 325 323 323 323 323 323 323 323 323 323 322 322 321 320 320 320 318 318 318 318 318 317 317 317 318 317 317 316 315 315 315 314 314 313 313 312 312 312
325 325 325 325 325 324 325 324 324 324 324 324 323 323 323 323 323 323 323 323 324 323 323 321 321 322 323 324 325 325 325 325 325 325 324 324 323 323 323 323 323 322 322 321 320 320 319 319 318 318 317 316 317 318 318 317 317 316 316 315 315 314 314 313 313 313 312 312 312
326 325 325 325 325 325 325 325 324 324 324 324 324 324 324 324 324 324 325 324 324 324 323 322 324 324 324 324 325 325 325 325 325 325 325 324 324 324 323 323 323 322 322 322 321 320 320 319 319 319 318 318 318 317 318 317 317 316 315 315 315 314 314 313 313 313 312 312 312
325 325 325 326 325 325 325 325 325 325 325 324 324 325 325 325 325 325 325 325 324 324 324 324 324 325 325 324 324 325 325 325 325 325 325 324 324 324 323 324 323 322 322 322 321 320 320 319 319 319 319 318 318 317 317 317 316 316 315 315 315 314 314 314 313 313 313 312 312
325 325 325 325 325 325 325 325 325 325 325 325 325 325 324 322 324 325 325 324 324 324 324 325 325 325 325 324 325 324 325 325 324 324 324 324 323 323 323 323 323 322 322 322 321 321 320 320 319 319 319 320 319 318 318 317 316 315 315 315 315 314 314 314 314 313 313 312 311
325 325 325 325 326 325 325 326 325 325 325 325 325 325 325 323 324 325 325 325 325 325 325 325 325 325 324 324 324 324 324 324 324 324 324 323 323 322 323 323 323 323 323 322 322 321 320 319 319 318 319 319 319 318 318 317 316 315 315 315 315 314 314 314 314 313 313 312 311
325 325 325 325 326 325 325 325 325 325 325 325 325 325 325 326 326 326 325 325 325 325 325 325 325 325 325 324 324 324 324 324 324 323 323 323 323 323 323 323 323 323 323 323 322 321 320 319 318 318 318 319 318 318 318 317 316 315 315 315 315 315 314 314 314 313 313 312 311
325 325 325 325 325 326 325 325 325 324 324 324 324 324 324 325 325 325 325 325 325 325 325 325 325 325 324 324 324 324 324 324 324 323 323 322 322 323 323 323 322 322 323 322 322 321 320 319 318 318 317 317 318 318 318 317 316 315 315 314 314 314 314 314 314 313 313 312 311
325 325 325 325 325 325 325 324 324 324 324 324 324 324 324 325 325 324 325 325 325 325 325 325 324 324 324 325 325 324 324 324 324 324 323 323 323 323 322 322 322 322 322 322 322 321 320 319 318 317 317 317 317 318 318 318 317 316 315 314 314 314 314 314 314 313 312 311 310
325 325 325 325 325 324 324 324 324 323 323 323 324 324 324 325 324 324 325 325 326 325 325 325 324 324 324 324 324 324 324 324 323 323 323 323 323 323 323 322 322 321 321 321 321 321 320 319 318 318 317 317 317 317 318 318 317 316 315 314 314 314 314 314 314 313 312 311 309
325 325 325 324 324 324 323 323 323 323 323 323 324 324 324 324 324 324 324 325 325 325 325 324 324 324 324 323 323 324 324 324 323 323 323 323 323 323 322 322 322 321 321 321 321 321 320 319 319 318 318 317 317 317 317 317 317 316 316 315 315 314 314 313 313 312 311 310 308
324 324 324 324 323 323 323 323 323 323 323 323 324 324 324 324 324 324 323 324 325 324 324 324 323 323 323 322 323 323 323 323 323 323 323 323 322 322 322 322 322 321 321 321 321 320 320 320 320 319 319 318 317 317 317 317 317 316 316 315 315 315 314 312 312 311 311 309 307
322 323 323 323 322 322 322 322 322 322 322 322 323 323 324 324 324 324 323 323 324 323 323 322 322 322 323 323 323 323 322 323 323 322 322 323 323 323 322 322 322 322 322 321 320 320 319 319 319 320 319 318 318 317 317 317 317 317 316 316 316 315 315 314 313 312 310 308 306
321 322 322 322 322 323 323 322 322 322 321 321 322 322 323 323 323 323 323 323 322 322 322 322 322 322 323 323 324 323 322 323 323 322 322 323 323 323 323 322 322 322 322 321 320 319 319 319 319 319 318 318 317 317 317 317 317 317 317 316 316 315 315 314 312 311 309 307 306
321 321 321 322 322 323 323 324 324 324 324 323 323 322 322 322 322 322 322 322 322 322 323 322 322 323 323 323 324 323 322 322 322 323 322 323 323 322 322 322 322 322 321 320 319 318 318 318 318 318 317 316 316 316 316 317 317 317 316 315 315 314 313 312 310 308 307 306 305
320 321 321 322 322 322 323 323 323 324 324 324 323 323 323 324 323 322 321 321 322 322 322 322 322 322 323 323 323 323 323 322 322 322 322 322 322 322 321 321 321 321 320 320 318 317 317 317 317 317 317 316 316 316 316 316 316 315 313 312 312 311 310 310 308 307 306 306 306
321 321 321 322 322 322 322 323 323 323 323 322 322 322 323 323 323 323 322 322 321 321 322 322 322 322 323 323 323 323 323 322 323 323 322 321 321 321 320 320 320 319 319 318 317 317 316 316 316 316 317 317 316 316 316 315 313 312 311 310 309 309 308 308 307 307 307 306 307
320 321 321 322 322 321 321 322 323 323 323 322 322 322 321 321 321 322 322 322 320 320 321 321 322 323 323 323 324 323 324 323 323 323 322 322 321 321 321 320 320 318 318 317 317 317 317 317 317 317 317 316 315 315 314 312 311 309 308 308 307 307 307 307 307 307 307 307 308
321 321 321 321 322 321 322 322 322 322 322 322 322 321 321 321 321 321 322 321 321 321 321 321 321 322 323 323 324 324 324 324 323 323 322 322 323 323 323 323 321 319 318 318 316 315 314 315 316 316 316 315 314 313 311 310 308 307 307 306 306 306 307 307 307 307 307 307 308
321 321 321 321 321 321 321 321 321 321 321 321 322 321 321 321 321 321 321 321 321 322 322 323 323 323 323 322 323 323 323 323 322 322 322 322 322 322 320 319 319 318 317 315 306 304 304 306 311 314 315 314 313 311 309 308 307 306 306 306 306 306 307 307 307 307 307 307 308
322 322 322 321 320 320 320 320 320 321 321 321 322 321 321 321 320 320 320 321 322 323 323 324 323 322 321 322 322 321 321 321 321 321 321 320 320 319 319 319 319 318 316 311 302 300 300 301 303 307 310 313 312 310 308 307 306 306 306 306 306 306 306 306 306 307 308 308 309
323 323 323 322 321 320 320 320 320 320 320 320 321 321 321 321 320 320 320 320 322 323 324 324 324 322 320 323 323 322 321 320 321 321 320 319 319 319 318 318 318 318 315 306 300 299 299 300 301 302 305 310 310 309 308 307 307 307 306 307 307 306 306 306 307 308 308 309 310
323 325 325 325 323 321 320 320 320 320 320 320 320 321 321 321 321 321 320 320 322 323 323 324 324 324 324 324 325 325 325 323 322 321 320 320 319 318 318 317 318 316 310 301 298 298 299 299 300 300 302 304 308 308 307 307 307 307 307 307 307 307 307 308 308 309 310 310 310
324 327 329 328 325 323 322 321 320 320 320 320 320 321 321 321 320 320 320 321 321 321 322 323 324 325 326 325 326 326 326 324 322 321 321 320 319 318 317 317 317 313 305 297 297 298 298 298 299 299 300 301 306 308 308 308 308 308 308 308 308 308 308 309 309 310 310 311 310
325 328 331 331 327 325 323 322 321 321 321 321 321 320 320 320 320 320 320 321 321 321 321 323 324 325 326 326 326 326 325 324 323 322 322 320 319 317 316 315 317 313 305 295 297 298 298 298 298 298 298 299 303 307 309 309 309 309 309 309 310 310 310 310 311 311 311 311 310
325 328 331 331 328 326 325 324 323 323 322 322 321 321 320 320 320 320 320 320 321 320 320 323 323 323 324 325 326 325 324 323 323 321 320 320 317 316 316 317 317 312 304 295 297 298 298 298 298 298 297 297 302 306 309 310 310 310 311 311 312 312 312 312 311 311 311 310 310
325 326 328 329 328 328 327 326 325 324 324 323 323 322 321 321 321 321 321 321 321 321 321 322 322 322 322 324 324 324 323 323 322 320 319 319 318 318 317 317 317 312 303 295 297 297 298 298 298 297 297 297 300 306 310 310 310 311 312 312 312 313 313 312 312 312 311 311 310
325 326 326 327 328 328 328 328 327 326 325 324 323 323 322 322 322 322 322 322 322 322 323 322 321 321 321 322 323 323 322 321 320 319 318 318 319 319 318 316 316 309 301 295 296 297 297 297 297 297 297 296 301 306 310 310 311 311 312 312 313 314 314 314 313 312 311 311 310
325 325 325 325 326 327 328 329 328 328 326 325 325 324 324 323 323 323 322 321 322 323 323 323 323 323 322 323 324 324 322 321 321 322 321 320 319 318 317 316 317 308 298 295 296 297 297 297 297 297 296 295 301 306 310 311 311 311 311 312 313 313 313 313 313 312 311 311 310
325 325 325 325 326 327 328 329 329 328 327 325 325 325 325 325 324 324 323 322 322 324 325 325 325 325 325 325 325 325 325 324 324 323 322 320 319 317 316 316 316 305 296 295 296 296 296 297 297 297 296 296 302 307 310 310 310 310 311 311 312 312 312 312 312 311 311 310 310
324 325 325 326 326 327 328 329 329 328 327 326 326 326 326 326 326 326 324 322 323 324 326 325 326 326 325 325 326 326 325 327 326 325 323 320 318 317 316 316 314 304 296 295 296 296 297 297 297 296 297 299 305 308 309 309 309 309 310 310 310 311 311 311 311 311 311 311 310
325 326 327 328 328 328 328 329 329 328 328 327 327 326 326 326 326 326 325 323 325 325 325 326 326 326 325 326 326 326 327 327 327 325 322 318 318 317 317 317 313 304 296 295 296 296 297 297 297 297 298 302 306 307 308 308 308 308 309 309 309 310 311 311 311 311 310 310 309
325 327 329 329 328 328 327 328 329 329 328 327 327 327 327 327 326 326 325 322 325 325 325 325 325 326 326 327 327 327 328 328 326 323 320 319 318 318 317 315 312 305 298 295 295 296 296 297 297 297 298 303 306 307 307 307 307 307 307 308 309 309 310 310 311 310 310 309 304
326 327 328 329 329 329 328 328 329 329 329 328 328 327 328 327 326 326 325 323 325 326 325 326 326 326 326 326 327 327 327 326 322 319 319 320 318 315 313 313 311 306 301 296 296 296 296 297 296 296 297 301 305 307 307 307 307 307 307 308 308 309 309 310 310 310 309 308 298
327 328 330 331 330 330 329 328 329 329 330 329 328 327 327 327 326 325 325 325 327 327 327 327 327 327 327 324 325 325 324 321 319 318 317 317 314 309 308 312 311 306 300 294 293 293 294 295 295 295 296 301 304 306 307 307 307 307 307 308 308 308 308 309 309 308 308 308 300
326 327 328 329 330 329 328 328 327 328 329 329 328 327 326 325 326 326 327 327 328 328 328 328 328 328 326 321 322 321 320 317 316 316 315 313 311 307 304 308 305 301 296 292 290 290 290 291 292 293 294 299 303 305 307 307 307 307 307 308 308 308 307 307 307 306 305 305 302
Wind_Speed
12 11 11 11 10 10 9 9 9 10 10 11 12 13 13 14 13 12 11 10 10 9 9 10 10 11 12 15 15 15 15 15 15 14 14 14 14 14 14 13 13 13 13 13 12 12 11 12 10 8 7 7 8 8 8 9 10 11 12 12 11 11 12 13 13 14 15 15 12
12 11 10 9 9 9 8 8 9 9 10 11 12 13 14 14 13 12 12 12 11 10 10 10 11 12 14 16 16 16 16 16 16 16 15 15 15 15 15 13 13 13 13 14 13 12 11 12 11 9 7 7 8 8 9 10 10 11 12 14 11 10 10 12 13 14 14 14 13
13 12 11 10 10 10 9 8 10 12 13 13 13 14 14 13 12 12 12 12 12 12 11 10 12 14 15 16 16 15 15 16 16 16 15 14 15 15 15 14 14 14 14 13 13 12 11 12 11 9 8 8 8 9 10 11 11 11 12 14 11 9 9 9 11 11 11 11 13
15 14 13 13 14 14 12 10 12 15 16 14 14 14 13 12 11 11 12 13 14 13 12 11 12 13 14 15 16 16 15 16 16 16 15 14 15 15 15 15 15 15 14 14 14 13 13 13 10 9 9 10 10 10 10 10 11 11 10 11 10 9 9 8 9 9 9 9 11
16 15 14 14 17 16 15 13 15 16 16 14 13 13 12 11 11 11 11 12 12 12 12 13 12 12 13 15 16 17 16 16 16 15 14 15 15 15 15 15 15 15 14 14 14 14 14 14 10 9 9 10 10 10 10 11 11 11 10 8 9 9 9 9 8 8 8 9 9
16 16 15 15 18 18 16 15 18 18 16 13 14 14 13 11 11 11 11 11 12 13 14 14 13 12 13 15 16 16 16 16 15 15 15 15 15 15 16 16 16 15 14 14 15 15 14 14 10 9 9 10 10 11 12 13 12 11 10 9 9 9 9 9 9 8 9 10 11
16 17 17 17 19 19 18 18 18 17 15 14 16 16 15 13 13 13 13 12 11 12 12 12 12 12 13 14 15 15 15 15 15 15 15 15 15 15 16 16 16 16 15 15 15 15 14 14 10 9 9 9 9 11 12 13 12 11 11 11 9 9 9 11 9 9 10 12 14
17 19 19 19 20 20 20 20 18 16 15 13 15 17 17 16 15 15 14 12 11 11 11 10 12 13 13 14 14 15 15 16 15 15 15 15 15 16 16 17 17 16 16 16 15 15 14 13 11 10 10 9 8 10 12 14 14 14 13 13 11 10 10 10 10 10 11 13 15
17 19 19 20 21 21 21 20 18 16 15 15 16 17 17 16 16 15 14 12 11 10 10 10 12 14 14 15 15 15 15 16 16 16 16 15 16 16 17 16 17 17 16 16 16 16 15 12 11 10 10 9 9 10 12 15 16 16 15 14 12 11 11 11 11 12 12 13 14
18 18 19 19 21 21 21 20 18 17 17 16 17 17 16 15 15 14 12 10 10 10 11 11 12 14 15 15 15 15 15 15 16 16 17 17 17 17 17 17 17 17 17 16 15 16 16 13 12 12 12 11 12 13 14 15 16 17 16 12 12 13 14 13 13 13 13 13 14
18 18 18 18 20 21 20 20 18 17 17 17 18 17 17 15 15 13 12 11 11 12 12 12 13 14 14 15 15 15 15 14 14 16 17 18 18 18 18 18 18 18 18 17 16 15 14 13 13 15 15 14 14 15 15 16 16 17 17 14 14 15 15 15 14 13 13 13 13
18 18 18 18 20 20 20 19 17 17 17 18 18 18 17 16 15 15 14 13 13 13 13 13 14 14 14 14 14 14 15 15 15 16 17 18 19 19 19 19 19 20 19 19 16 14 13 14 15 17 18 18 15 14 14 16 17 17 17 17 16 16 16 16 15 13 12 12 13
18 18 18 18 19 20 19 19 17 17 17 18 18 18 17 16 16 16 15 15 15 13 13 13 14 14 14 14 14 14 15 15 16 16 16 17 18 18 19 19 19 20 20 19 17 15 14 15 17 18 19 19 16 14 15 16 17 17 17 18 17 17 16 16 16 14 13 13 13
18 18 19 19 20 19 19 18 17 16 17 19 19 18 17 16 16 16 16 16 15 14 13 13 14 14 14 15 15 15 16 16 17 17 17 17 17 18 18 18 19 19 19 17 17 17 17 17 18 18 19 19 18 17 16 16 16 16 17 17 17 17 17 16 16 15 14 14 13
19 19 19 20 20 19 18 19 16 16 17 19 18 17 16 15 16 15 15 16 16 15 14 13 13 14 15 17 17 17 17 17 18 18 18 18 18 18 18 18 19 19 18 17 16 17 18 18 18 18 18 18 18 17 16 15 15 15 15 16 16 16 16 16 15 14 14 13 13
20 21 21 21 21 20 19 18 16 16 17 18 18 17 16 15 15 15 15 16 15 14 14 15 15 15 15 17 18 18 18 18 18 19 19 19 19 19 19 19 19 19 18 17 17 16 17 17 16 16 16 16 16 16 16 15 15 15 15 15 15 15 15 15 14 14 13 12 12
22 22 21 22 22 22 21 19 17 16 17 18 18 18 17 15 14 15 15 16 15 15 16 17 16 15 15 16 17 17 17 17 18 18 18 18 19 19 19 19 18 18 17 17 17 17 16 16 15 15 15 15 15 15 15 15 14 14 14 14 14 14 14 13 12 11 11 10 11
23 22 22 22 22 22 22 21 19 19 19 20 19 18 17 16 15 15 15 16 16 16 17 18 17 16 16 16 16 15 15 16 17 17 18 18 18 18 18 18 17 17 16 16 16 16 16 16 15 14 14 14 14 14 14 14 13 13 13 13 13 13 12 11 10 9 8 9 9
23 23 22 23 22 22 21 21 19 19 19 20 19 19 18 18 18 17 16 17 17 17 18 18 18 17 17 17 16 15 15 16 17 18 18 18 17 17 17 17 17 16 16 16 16 16 16 15 15 14 14 13 13 13 13 13 12 12 11 11 12 11 11 10 10 9 9 10 10
22 22 23 23 22 22 21 20 18 17 16 15 16 17 18 19 19 18 18 18 18 18 18 19 18 17 17 17 17 16 15 15 16 17 18 17 17 17 17 17 16 16 16 15 15 15 15 14 14 14 13 13 13 13 12 11 10 10 9 9 10 10 10 10 10 10 10 10 10
22 22 22 22 22 22 21 20 19 18 16 15 15 15 15 15 16 17 17 18 18 18 19 19 19 18 18 17 18 17 16 14 15 16 17 17 17 17 16 15 15 15 14 14 14 13 13 13 12 11 11 10 11 11 11 9 9 9 9 8 8 9 10 10 10 11 11 11 11
21 21 21 21 21 21 21 20 20 19 19 18 17 16 15 14 14 14 15 14 15 16 17 18 18 18 17 17 17 17 16 14 15 15 16 15 16 15 14 13 14 14 14 13 12 12 11 10 9 8 7 8 9 9 9 9 8 8 8 8 8 8 9 11 11 12 12 12 13
21 20 20 20 20 20 20 20 20 20 20 20 19 18 17 16 16 15 14 13 13 14 14 14 14 15 16 16 16 16 16 15 15 15 15 15 14 14 13 12 13 13 12 10 9 9 8 7 7 6 7 7 9 9 9 9 8 8 8 8 9 10 11 12 13 13 13 14 14
21 20 19 17 19 20 21 20 20 20 21 21 21 20 20 19 18 17 16 16 16 15 14 12 11 12 13 14 15 16 16 16 15 15 14 13 12 11 10 9 9 9 9 7 6 6 6 6 6 6 7 8 8 9 9 9 9 8 9 10 11 13 14 14 15 15 15 15 15
20 20 19 18 20 20 21 21 21 21 21 21 21 21 21 21 20 19 18 18 18 17 16 15 13 12 11 12 13 14 14 15 14 13 12 11 9 9 8 7 7 7 6 5 6 8 8 8 7 7 7 7 7 7 8 9 9 10 11 13 14 15 15 15 16 16 16 17 16
20 20 20 20 20 21 21 22 22 22 22 22 21 21 21 21 20 20 19 19 19 18 17 16 15 13 12 12 13 13 13 13 12 11 10 10 10 10 9 8 8 7 7 7 10 12 13 13 12 11 9 8 8 8 8 9 11 12 14 15 15 15 15 15 15 16 17 17 17
20 20 20 20 21 21 22 22 22 22 22 22 22 22 22 21 19 19 20 20 19 18 17 16 15 14 13 13 15 15 14 12 12 12 12 12 12 13 12 11 9 8 7 9 13 15 17 17 17 16 14 11 10 10 10 10 12 14 15 15 15 15 15 15 16 16 16 16 17
21 20 19 20 21 21 22 22 22 22 22 22 22 22 21 21 20 20 20 19 18 17 16 15 14 13 12 12 14 15 15 14 14 13 14 14 15 15 14 12 10 9 8 10 14 17 18 18 19 18 16 12 11 11 12 12 13 13 14 14 14 15 16 16 15 15 15 16 15
22 20 19 19 21 22 22 22 22 22 22 22 21 21 20 20 21 20 20 19 19 17 15 13 12 11 10 12 13 15 16 16 14 13 14 15 15 15 15 14 13 11 11 13 16 17 18 18 18 18 17 14 11 10 10 11 12 12 12 12 13 14 15 15 14 14 14 14 14
22 20 18 19 21 22 23 23 23 22 21 20 20 20 20 20 21 21 21 20 20 18 15 12 11 11 12 13 13 13 14 15 14 14 14 15 16 17 16 15 14 12 13 16 18 18 18 18 18 18 18 17 13 11 10 11 11 12 11 11 13 14 15 15 16 15 14 13 13
21 20 19 20 21 22 23 23 23 22 21 19 19 20 20 20 21 21 20 20 19 17 15 13 14 14 15 14 13 13 14 14 14 15 16 17 18 18 17 16 15 13 14 19 19 19 18 18 18 19 20 20 16 13 12 12 12 12 11 11 13 14 15 15 15 16 15 15 13
21 20 20 20 21 22 22 22 22 21 21 20 20 20 20 20 20 20 19 18 18 17 16 16 16 17 17 15 14 14 14 14 15 15 16 17 17 17 16 14 14 13 14 20 20 20 19 19 19 20 21 22 17 15 14 14 13 12 12 13 15 15 15 14 13 14 15 14 12
21 21 21 21 21 21 21 21 20 20 20 20 20 20 20 20 19 18 18 17 17 17 18 18 18 18 18 17 15 14 14 14 15 15 15 15 16 16 14 13 12 11 13 20 20 20 20 20 20 21 22 23 18 16 16 15 13 12 12 13 14 15 15 15 13 12 12 12 11
20 20 20 21 20 20 19 19 19 19 19 20 20 20 20 19 18 18 17 16 16 16 16 17 17 18 17 17 16 15 14 13 14 15 15 15 15 15 14 12 9 9 13 20 20 20 20 20 21 22 22 23 17 15 15 16 14 12 12 12 12 13 13 13 12 12 11 11 10
19 19 20 19 19 18 17 17 17 18 19 20 20 20 20 19 19 18 17 15 15 15 15 15 15 15 15 16 15 15 14 13 14 15 15 15 14 14 14 13 9 11 15 20 20 20 20 21 21 22 22 20 15 14 14 15 14 14 13 13 12 12 12 11 11 11 10 10 10
18 18 18 17 17 16 15 15 16 17 18 19 19 19 19 19 18 17 16 15 14 14 15 15 14 15 15 15 14 14 14 14 14 14 14 13 14 14 14 13 10 12 16 20 20 21 21 22 22 22 21 17 13 12 12 12 12 12 13 12 12 11 11 11 10 10 9 9 9
17 16 16 15 15 15 14 14 15 16 17 18 18 18 19 19 18 16 15 14 14 15 15 15 14 15 15 15 14 13 13 14 13 13 12 12 13 13 13 12 10 12 15 19 21 22 23 24 24 23 20 15 12 11 10 9 9 9 10 11 11 11 10 9 9 9 9 9 8
15 14 14 13 14 14 14 13 14 15 16 16 16 17 17 16 16 15 14 14 14 15 15 15 14 14 14 14 13 12 12 11 11 11 11 11 11 11 11 10 10 11 13 18 21 23 24 24 24 23 19 13 12 10 8 7 7 7 8 8 9 9 8 7 6 6 6 7 5
12 12 12 12 12 12 13 12 13 13 13 14 14 14 14 14 13 13 13 13 14 14 14 14 14 13 12 11 9 8 7 8 9 9 9 10 9 9 8 8 8 8 8 10 12 15 16 17 18 17 15 11 9 8 6 6 6 7 7 7 7 7 7 6 4 4 4 4 1
7 8 8 8 8 9 10 11 11 11 11 11 12 12 12 12 11 11 11 11 12 12 12 12 12 11 9 7 7 7 8 8 8 8 7 8 7 7 6 7 7 6 5 5 4 5 7 9 9 10 9 8 7 6 5 5 6 7 8 7 6 5 5 4 3 2 1 1 3
4 4 5 5 6 7 8 9 9 9 9 9 10 10 10 10 10 10 10 9 10 10 9 9 8 7 7 8 9 9 10 10 9 8 8 8 8 8 7 7 8 9 10 11 11 10 9 7 5 5 6 7 7 6 6 5 6 7 8 7 5 4 3 2 2 2 3 4 5
Wind_Direction
174 174 175 178 178 177 177 179 176 175 176 178 179 182 185 189 192 196 201 205 206 206 205 205 202 201 200 199 199 199 201 203 204 204 203 204 205 204 204 203 202 201 200 202 200 199 200 204 205 205 206 209 212 215 219 223 223 224 224 225 226 227 228 229 230 230 229 229 229
176 175 176 179 179 177 175 178 176 176 178 179 181 183 186 189 191 195 199 201 203 203 203 203 202 201 200 199 199 199 201 203 204 205 205 206 206 206 204 203 203 202 202 202 201 201 202 204 206 208 210 211 213 217 221 224 224 225 226 226 226 226 227 229 230 230 230 230 230
178 178 178 181 182 180 177 180 179 181 182 183 184 184 186 187 190 194 197 198 199 200 200 200 200 199 199 198 198 199 201 202 203 204 205 206 207 207 205 203 203 203 203 202 202 203 203 204 206 210 213 213 214 216 221 224 225 226 227 227 227 226 226 228 229 229 229 229 229
179 179 179 182 185 183 181 183 184 185 185 184 184 184 185 186 190 194 196 196 197 198 198 198 198 197 196 196 197 199 200 201 203 204 205 206 207 207 207 205 204 204 204 203 204 204 205 205 208 212 216 218 218 219 220 222 222 224 226 227 227 226 226 227 227 227 227 229 229
180 179 180 182 186 186 185 187 188 187 186 184 183 184 185 187 191 193 194 194 195 196 196 196 197 196 195 196 197 199 200 201 202 203 205 206 207 207 208 207 206 205 205 204 204 205 206 207 210 214 217 218 218 219 221 222 223 223 224 224 225 226 226 226 225 225 226 227 227
182 180 180 182 186 188 189 192 191 188 186 184 185 186 187 189 191 193 194 194 194 194 195 197 199 199 198 197 198 199 200 201 202 204 205 206 207 207 208 209 208 207 206 205 204 205 207 208 213 217 218 219 221 221 222 222 224 224 224 223 223 224 224 225 224 224 225 226 226
187 183 181 180 187 190 193 195 192 189 186 187 189 190 191 191 192 193 194 195 193 193 194 196 200 202 203 201 200 200 201 201 203 205 206 207 207 208 208 209 209 209 208 206 205 205 207 209 214 217 219 219 222 222 222 221 222 223 224 224 222 221 222 223 223 223 224 226 226
192 187 182 179 186 192 195 196 193 189 188 190 193 194 195 196 195 195 195 196 195 194 194 197 201 205 207 206 204 203 203 203 204 205 206 208 208 209 209 209 210 210 210 209 208 207 208 210 215 219 220 219 221 222 221 221 221 223 224 224 222 221 221 223 222 222 223 225 226
196 190 185 180 186 192 196 197 194 192 191 195 196 198 199 201 200 199 198 198 198 197 197 199 202 206 209 211 209 207 205 205 206 206 207 208 209 210 210 211 211 212 212 211 211 211 211 213 217 220 221 220 221 222 221 221 222 223 225 226 225 223 222 224 223 223 223 224 225
196 192 187 183 187 191 195 197 196 196 196 199 200 201 202 204 205 205 203 202 201 201 201 202 203 206 208 211 211 210 208 208 209 209 209 209 210 211 212 213 213 214 214 213 213 214 214 215 218 220 222 222 223 223 223 221 223 224 225 226 226 225 224 224 225 225 225 225 225
196 193 190 187 188 191 194 196 197 199 200 202 204 204 205 206 208 209 208 206 205 205 205 205 205 206 208 210 211 211 210 209 210 211 211 211 211 212 214 216 216 216 216 215 214 215 215 217 219 221 223 223 224 225 224 223 223 225 226 227 228 228 228 227 226 226 227 227 226
195 194 192 191 190 192 194 196 198 200 202 205 206 206 206 207 208 210 211 210 209 208 208 208 208 208 208 209 211 211 211 211 212 213 213 213 213 213 215 217 218 219 219 218 216 216 216 218 220 222 223 224 224 224 225 224 224 225 227 229 229 230 231 230 228 228 228 227 227
196 195 194 193 193 194 195 197 200 202 204 205 207 207 207 207 208 209 211 212 211 210 210 210 210 211 211 211 211 211 212 212 212 213 214 215 214 214 215 217 219 220 221 220 218 217 217 219 220 222 223 224 224 224 224 224 225 226 227 229 230 231 232 233 231 230 230 230 228
198 197 196 195 195 196 198 200 202 203 205 206 207 208 208 208 208 209 210 212 212 212 212 211 212 212 213 213 213 212 212 213 213 214 215 215 215 214 214 216 218 219 220 220 218 218 218 220 221 222 224 225 225 224 224 223 225 226 228 229 230 232 233 234 233 232 231 230 229
200 199 199 198 197 198 200 201 202 204 205 206 207 208 208 208 208 208 210 212 213 214 214 214 214 214 215 215 215 215 214 214 214 214 215 215 216 215 215 216 216 218 218 219 218 218 220 222 222 223 225 226 227 227 225 224 226 227 229 230 232 233 234 235 234 232 230 228 227
201 201 201 200 200 200 201 201 202 203 204 206 206 207 208 209 208 208 209 212 213 215 216 216 216 216 216 216 217 217 216 216 215 215 215 215 215 216 216 216 216 217 217 218 217 218 220 222 224 226 227 228 230 230 229 227 227 228 230 232 233 234 235 235 234 231 228 224 223
201 202 202 201 201 201 201 201 202 203 204 205 206 207 208 209 209 209 209 211 213 215 216 217 217 217 217 216 216 217 218 218 217 217 216 216 216 217 217 218 217 217 217 217 218 218 219 221 224 226 229 230 232 233 233 231 230 229 229 230 231 232 233 232 229 226 221 216 217
202 202 202 203 203 203 203 202 203 203 204 205 205 206 208 209 210 211 210 210 212 214 215 217 217 218 218 217 216 216 217 218 219 219 218 218 218 218 219 220 219 218 217 217 218 219 220 221 222 224 227 230 232 234 235 234 233 230 228 227 227 227 226 223 218 212 207 204 206
203 203 204 204 205 205 204 204 204 205 205 206 206 207 208 209 210 211 211 210 211 212 214 216 217 218 219 218 217 216 217 219 220 221 221 220 220 220 220 221 220 219 218 217 218 220 221 222 222 223 225 227 230 232 234 234 233 229 223 220 219 218 216 212 207 202 200 201 204
206 205 205 206 207 207 208 207 207 207 208 207 207 208 209 209 210 211 211 210 209 209 211 214 216 217 218 219 218 217 217 218 220 221 222 222 221 221 220 220 220 219 218 217 218 219 221 223 223 223 223 224 226 227 229 229 226 219 212 209 210 210 208 206 203 203 204 206 209
208 208 208 208 209 209 210 210 211 211 212 212 212 213 212 210 210 210 211 211 209 208 210 213 215 216 217 218 219 219 218 218 219 221 222 222 222 221 219 218 217 217 216 215 215 217 219 221 221 220 218 217 218 219 219 216 211 206 202 201 205 208 209 209 209 209 211 213 216
210 210 209 210 210 211 211 212 213 213 214 215 216 217 217 216 214 214 214 213 210 210 211 214 215 216 217 218 219 220 220 219 219 220 221 221 221 219 217 214 214 214 214 213 212 211 212 213 213 210 204 201 205 206 204 199 196 196 197 201 208 213 217 219 219 219 220 220 223
211 211 211 211 212 212 213 213 214 215 216 216 217 218 218 218 218 217 217 218 216 215 215 217 219 220 220 221 221 222 221 221 220 219 219 218 218 215 212 209 209 210 210 208 202 198 194 194 193 190 187 188 194 194 192 188 188 191 197 205 214 221 225 228 228 227 227 227 229
211 211 211 211 212 212 213 214 215 216 217 217 217 218 218 219 218 218 218 218 219 220 220 220 220 222 223 224 223 222 222 221 219 217 214 212 210 207 203 199 199 199 198 194 188 181 175 174 178 181 184 187 191 190 188 186 190 195 203 212 220 226 229 231 230 230 230 231 232
211 212 212 213 212 212 213 213 215 216 217 217 218 218 219 219 218 218 218 218 219 219 220 221 219 219 218 219 220 220 220 218 214 209 204 199 196 193 190 189 191 193 194 193 182 174 168 167 173 180 185 189 190 190 189 188 194 201 209 216 222 227 231 233 232 232 232 233 234
210 212 213 215 214 214 213 214 215 215 216 217 218 219 219 219 219 219 219 219 219 219 219 218 218 216 214 213 213 213 213 213 209 203 196 191 191 192 194 197 198 202 205 205 188 180 174 169 169 171 177 184 187 190 193 196 201 207 213 218 222 226 230 232 233 233 233 233 233
209 210 212 214 216 216 216 215 215 215 216 217 217 218 219 219 219 220 220 221 221 220 219 218 216 214 213 212 210 208 206 206 205 203 201 200 202 204 206 208 207 205 201 192 180 176 174 172 168 167 169 176 182 188 195 202 207 211 216 221 224 226 229 232 234 234 234 234 233
208 208 209 212 215 217 218 217 216 216 216 216 217 218 219 219 220 221 221 222 221 220 219 219 217 214 213 212 209 206 203 202 202 201 202 203 205 206 208 209 206 201 189 175 172 173 173 173 168 166 166 171 180 189 197 204 209 213 217 221 224 226 228 230 232 233 234 234 233
208 206 205 207 211 215 218 218 218 217 216 216 216 217 218 219 220 221 221 222 221 220 220 219 216 214 213 214 210 206 203 201 198 198 199 201 203 206 208 209 206 197 181 168 169 171 173 172 168 165 166 171 181 192 201 208 212 214 216 219 221 224 226 228 230 231 232 233 233
209 205 203 204 208 212 216 218 219 219 217 216 216 216 217 218 219 220 221 221 221 221 219 217 214 213 212 213 209 206 203 200 198 196 197 200 203 206 207 207 204 193 178 168 170 171 172 171 168 168 170 176 185 197 207 212 215 217 219 221 222 224 225 227 229 230 231 232 232
212 207 204 203 207 211 214 217 219 220 220 218 216 216 216 217 219 220 221 221 221 220 218 216 216 215 214 212 209 206 204 202 200 200 201 202 205 206 206 203 200 189 175 168 170 172 172 172 173 174 178 183 190 200 209 215 217 219 221 223 224 226 227 229 230 230 231 231 230
214 211 208 206 208 210 213 216 218 220 222 222 220 219 218 218 219 220 221 222 222 220 218 216 216 217 216 213 210 206 204 204 203 203 204 204 206 205 203 200 196 185 172 169 171 172 174 176 179 182 186 189 194 203 210 216 219 223 226 228 230 229 229 229 230 231 230 230 228
216 215 212 210 210 211 212 213 216 219 221 223 224 223 222 221 221 221 221 221 221 220 219 217 217 217 217 215 211 207 205 204 204 204 203 203 203 202 200 196 193 180 169 169 172 174 177 181 185 189 192 194 198 205 212 217 221 225 229 232 233 233 233 233 233 232 231 229 227
217 217 216 215 213 211 210 210 212 215 219 222 225 226 226 225 224 223 222 220 220 220 220 219 218 218 218 217 213 209 205 203 203 202 202 200 200 198 196 194 187 170 163 169 172 176 180 186 191 195 197 197 201 208 215 219 224 229 233 236 237 237 237 237 236 235 233 231 229
217 218 219 219 217 213 209 207 207 210 214 218 222 225 227 228 228 226 224 222 221 221 221 222 220 220 219 219 216 210 205 200 200 200 198 196 194 194 194 195 182 163 160 169 173 178 184 190 196 199 200 199 204 212 218 222 227 232 236 240 242 243 242 242 240 239 237 234 231
218 219 220 221 220 216 210 204 203 205 209 214 218 222 225 227 228 229 228 225 224 223 223 223 221 221 220 220 217 211 205 199 198 195 193 190 190 191 192 193 175 161 161 170 176 182 188 194 199 201 201 201 207 214 220 224 229 235 239 244 246 247 247 246 244 242 239 236 233
221 221 220 221 221 219 214 206 202 202 205 209 213 217 221 224 227 228 229 228 227 226 225 223 222 221 220 219 216 212 206 199 194 189 184 182 185 187 189 186 168 162 166 176 181 186 192 198 201 202 201 202 209 215 220 224 230 237 241 246 249 250 250 250 248 245 242 238 235
224 223 221 220 220 219 216 209 202 200 202 205 209 213 217 221 224 226 227 227 229 229 227 225 223 221 220 217 215 211 204 193 182 176 173 176 180 182 181 174 162 164 175 185 189 193 197 200 203 202 200 202 208 213 218 224 230 236 241 244 248 250 250 251 248 246 243 238 236
229 226 224 221 219 217 214 209 202 199 199 202 206 210 214 218 221 224 225 226 228 230 230 229 225 222 216 210 203 192 176 160 154 155 160 168 169 167 163 157 153 159 174 192 203 209 212 215 214 210 206 208 212 215 219 224 230 235 239 244 248 250 250 249 244 243 242 234 224
231 225 220 214 209 207 206 205 200 197 196 200 204 208 212 215 218 221 222 225 227 229 231 232 227 217 200 178 158 136 121 118 122 130 139 145 138 131 129 134 123 103 71 32 353 313 286 268 255 240 229 226 226 228 230 231 235 238 241 243 245 246 245 239 228 227 237 223 76
207 200 194 190 191 194 197 201 200 198 196 199 204 207 210 210 213 215 217 220 221 224 227 230 216 187 153 133 125 117 111 109 109 110 111 111 104 91 77 70 69 60 47 30 19 6 350 327 300 263 238 233 233 236 239 239 243 244 245 244 241 237 228 209 155 96 64 49 57